Location: Caltech
(34.1382°N, 118.1253°W)
Time: 00:57:00
(UTC-07:00)

Tiros 1 despin weight - All Passes

Search period start: 01 April 2015 00:00
Search period end: 11 April 2015 00:00
Orbit: 599 x 648 km, 48.2° (Epoch: 30 March)

Date Brightness Start Highest point End Pass type
(mag) Time Alt. Az. Time Alt. Az. Time Alt. Az.
01 Apr - 00:57:08 10° NW 01:01:16 36° NNE 01:05:23 10° E night (unlit)
01 Apr - 02:38:49 10° WNW 02:42:56 37° SW 02:47:00 10° SSE night (unlit)
01 Apr - 16:47:10 10° SE 16:48:08 11° SE 16:49:21 10° ESE daylight
01 Apr - 18:24:44 10° SW 18:29:21 78° SE 18:33:55 10° NE daylight
01 Apr - 20:07:38 10° WNW 20:11:25 24° NNW 20:15:08 10° NNE visible
01 Apr - 21:52:06 10° NNW 21:54:20 13° N 21:56:34 10° NNE visible
01 Apr - 23:34:09 10° NNW 23:37:23 19° NNE 23:40:38 10° ENE visible
02 Apr - 01:15:14 10° NW 01:19:41 70° NE 01:24:06 10° ESE night (unlit)
02 Apr - 02:58:05 10° W 03:01:00 17° SW 03:03:45 10° S night (unlit)
02 Apr - 17:02:26 10° S 17:06:10 25° SE 17:09:56 10° ENE daylight
02 Apr - 18:43:08 10° WSW 18:47:39 53° NNW 18:52:08 10° NE daylight
02 Apr - 20:27:02 10° WNW 20:30:07 17° NNW 20:33:09 10° NNE visible
02 Apr - 22:10:53 10° NNW 22:13:13 14° N 22:15:34 10° NE visible
02 Apr - 23:52:09 10° NW 23:56:03 29° NNE 23:59:56 10° E night (unlit)
03 Apr - 01:33:33 10° WNW 01:37:54 55° SW 01:42:13 10° SE night (unlit)
03 Apr - 17:19:44 10° SW 17:24:16 54° SE 17:28:45 10° ENE daylight
03 Apr - 19:02:02 10° W 19:06:08 30° NNW 19:10:10 10° NE daylight
03 Apr - 20:46:29 10° NW 20:48:57 14° N 20:51:22 10° NNE visible
03 Apr - 22:29:07 10° NNW 22:32:03 17° NNE 22:34:58 10° NE visible
04 Apr - 00:10:10 10° NW 00:14:32 50° NNE 00:18:52 10° ESE night (unlit)
04 Apr - 01:52:21 10° WNW 01:56:00 25° SW 01:59:34 10° S night (unlit)
04 Apr - 15:58:12 10° S 16:01:08 17° SE 16:04:12 10° E daylight
04 Apr - 17:37:50 10° WSW 17:42:29 73° NW 17:47:05 10° NE daylight
04 Apr - 19:21:19 10° WNW 19:24:46 20° NNW 19:28:09 10° NNE daylight
04 Apr - 21:05:32 10° NNW 21:07:48 13° N 21:10:04 10° NNE visible
04 Apr - 22:47:08 10° NNW 22:50:45 23° NNE 22:54:22 10° ENE visible
05 Apr - 00:28:21 10° NW 00:32:50 80° SW 00:37:16 10° SE night (unlit)
05 Apr - 02:13:03 10° WSW 02:14:00 10° SW 02:14:43 10° SW night (unlit)
05 Apr - 16:14:54 10° SSW 16:19:11 37° SE 16:23:28 10° ENE daylight
05 Apr - 17:56:30 10° W 18:00:52 39° NNW 18:05:10 10° NE daylight
05 Apr - 19:40:45 10° NW 19:43:32 15° N 19:46:14 10° NNE visible
05 Apr - 21:24:00 10° NNW 21:26:38 15° N 21:29:18 10° NE visible
05 Apr - 23:05:07 10° NW 23:09:19 37° NNE 23:13:29 10° E visible
06 Apr - 00:46:52 10° WNW 00:50:58 36° SW 00:55:01 10° SSE night (unlit)
06 Apr - 14:54:42 10° SSE 14:56:05 11° SE 14:57:42 10° ESE daylight
06 Apr - 16:32:39 10° SW 16:37:19 80° SE 16:41:57 10° NE daylight
06 Apr - 18:15:36 10° WNW 18:19:24 24° NNW 18:23:10 10° NNE daylight
06 Apr - 20:00:02 10° NNW 20:02:22 14° N 20:04:40 10° NNE visible
06 Apr - 21:42:05 10° NNW 21:45:24 20° NNE 21:48:44 10° ENE visible
06 Apr - 23:23:12 10° NW 23:27:41 72° NE 23:32:08 10° ESE visible
07 Apr - 01:06:10 10° W 01:08:59 16° SW 01:11:39 10° SSW night (unlit)
07 Apr - 15:10:16 10° S 15:14:06 26° SE 15:17:59 10° ENE daylight
07 Apr - 16:51:03 10° WSW 16:55:36 52° NNW 17:00:07 10° NE daylight
07 Apr - 18:34:58 10° WNW 18:38:06 17° NNW 18:41:09 10° NNE daylight
07 Apr - 20:18:45 10° NNW 20:21:12 14° N 20:23:39 10° NE visible
07 Apr - 22:00:03 10° NW 22:04:02 29° NNE 22:07:59 10° E visible
07 Apr - 23:41:31 10° WNW 23:45:53 53° SW 23:50:12 10° SE visible
08 Apr - 15:27:35 10° SW 15:32:10 56° SE 15:36:44 10° ENE daylight
08 Apr - 17:09:56 10° W 17:14:04 30° NNW 17:18:08 10° NE daylight
08 Apr - 18:54:22 10° NW 18:56:53 14° N 18:59:22 10° NNE daylight
08 Apr - 20:36:58 10° NNW 20:39:59 17° NNE 20:43:01 10° ENE visible
08 Apr - 22:18:04 10° NW 22:22:29 52° NNE 22:26:51 10° ESE visible
09 Apr - 00:00:18 10° WNW 00:03:56 24° SW 00:07:28 10° S night (unlit)
09 Apr - 14:05:55 10° S 14:09:00 18° SE 14:12:12 10° E daylight
09 Apr - 15:45:41 10° WSW 15:50:22 72° NW 15:55:00 10° NE daylight
09 Apr - 17:29:11 10° WNW 17:32:40 20° NNW 17:36:06 10° NNE daylight
09 Apr - 19:13:22 10° NNW 19:15:43 14° N 19:18:04 10° NNE daylight
09 Apr - 20:54:58 10° NNW 20:58:41 24° NNE 21:02:22 10° ENE visible
09 Apr - 22:36:14 10° NW 22:40:45 78° SW 22:45:11 10° SE visible
10 Apr - 00:21:22 10° WSW 00:21:54 10° SW 00:22:11 10° SW night (unlit)
10 Apr - 14:22:40 10° SSW 14:27:01 38° SE 14:31:22 10° ENE daylight
10 Apr - 16:04:20 10° W 16:08:43 38° NNW 16:13:03 10° NE daylight
10 Apr - 17:48:35 10° NW 17:51:24 16° N 17:54:10 10° NNE daylight
10 Apr - 19:31:47 10° NNW 19:34:32 15° N 19:37:18 10° NE daylight
10 Apr - 21:12:56 10° NW 21:17:12 39° NNE 21:21:25 10° E visible
10 Apr - 22:54:43 10° WNW 22:58:51 35° SW 23:02:53 10° SSE visible
